sat.trackr.live / text

‹ back to catalog

STARLINK-31580

NORAD 59434 · 2024-065P

PAYLOAD ACTIVE UNKNOWN

§ Identity

Operator
Country
US
Launch date
2024-04-07
Launch site
AFWTR
Launch vehicle
Mass (kg)
RCS (m²)

Purposes: comms

External: N2YO · Heavens-Above · Gunter

§ Orbital elements

Epoch: 2026-09-21T20:11:06.393408Z

Period
93.85 min
Inclination
53.1596°
Eccentricity
0.0001304
Mean motion
15.34385867 rev/d
Perigee alt
461.9 km
Apogee alt
463.6 km
Semi-major
6,840.9 km
B*
4.3706e-5
RAAN
91.1041°
Arg perigee
99.5535°
Mean anomaly
260.5615°
Rev number
13,895

§ Raw data

STARLINK-315801 59434U 24065P   26264.84104622  .00001100  00000+0  43706-4 0  99942 59434  53.1596  91.1041 0001304  99.5535 260.5615 15.34385867138957

JSON: /api/v1/satellites/59434 · /tle

For live sub-satellite position, see the globe view (requires WebGL).

§ Visibility from observer

Set your observer location to see the next 7 days of passes ≥ 10°. The values pass through the URL so the page stays shareable.

No JS? Fill the form by hand. The geolocation button needs JavaScript.